Home > Weather > Bretten > Past weeks

Flag for Germany Past Weather in Bretten, Baden-Württemberg, Germany — Yesterday and Last 2 Weeks

Now
82 °F

Passing clouds.


Feels Like: 83 °F
Forecast: 63 / 77 °F
Wind: 3 mph from North

Location: Mannheim City

Current Time: Jul 26, 2016 at 2:25:45 PM

Latest Report: Jul 26, 2016 at 1:50 PM


Visibility: N/A

Pressure: 30.07 "Hg

Humidity: 51%

Dew Point: 63 °F

Location of BrettenLocation

Past Weather in Bretten — Graph

°F

Bretten Temperature Yesterday

Maximum temperature yesterday: 84 °F (at 4:20 PM)
Minimum temperature yesterday: 68 °F (at 5:50 AM)
Average temperature yesterday: 78 °F

High & Low Weather Summary for the Past Weeks

 TemperatureHumidityPressure
High95 °F (Jul 20, 4:50 PM)100% (Jul 13, 5:50 AM)30.33 "Hg (Jul 13, 5:50 AM)
Low55 °F (Jul 16, 7:20 AM)20% (Jul 20, 5:50 PM)29.89 "Hg (Jul 11, 12:20 PM)
Average73 °F62%30.07 "Hg
* Reported Jul 11 12:20 PM — Jul 26 12:50 PM, Bretten, Weather by CustomWeather, © 2016

Note: Actual official high and low records may vary slightly from our data, if they occured in-between our weather recording intervals... More about our weather records

Advertising

Bretten Weather History for the Previous 24 Hours

Scroll right to see more
 ConditionsComfort  
Time TempWeatherWind HumidityBarometerVisibility
12:50 PM
Tue, Jul 26
82 °FScattered clouds.3 mph48%30.09 "HgN/A
12:20 PM82 °FSunny.3 mph51%30.09 "Hg10 mi
11:50 AM81 °FSunny.2 mph54%30.09 "Hg10 mi
11:20 AM79 °FPassing clouds.2 mph54%30.09 "HgN/A
10:50 AM79 °FPassing clouds.2 mph61%30.12 "HgN/A
10:20 AM77 °FPassing clouds.2 mph61%30.12 "HgN/A
9:50 AM75 °FSunny.3 mph65%30.12 "Hg10 mi
9:20 AM73 °FPassing clouds.5 mph69%30.12 "HgN/A
8:50 AM73 °FPassing clouds.5 mph69%30.12 "HgN/A
8:20 AM72 °FSunny.2 mph73%30.12 "Hg10 mi
7:50 AM70 °FSunny.2 mph83%30.12 "Hg10 mi
7:20 AM70 °FSunny.1 mph83%30.09 "Hg10 mi
6:50 AM66 °FSunny.1 mph100%30.09 "Hg10 mi
6:20 AM64 °FClear.1 mph100%30.09 "Hg10 mi
5:50 AM64 °FClear.2 mph100%30.09 "Hg10 mi
9:20 PM
Mon, Jul 25
79 °FSunny.3 mph54%30.07 "Hg10 mi
8:50 PM81 °FScattered clouds.5 mph48%30.07 "HgN/A
8:20 PM82 °FScattered clouds.7 mph48%30.07 "HgN/A
7:50 PM82 °FScattered clouds.6 mph45%30.07 "HgN/A
7:20 PM82 °FBroken clouds.7 mph48%30.07 "HgN/A
6:50 PM82 °FScattered clouds.6 mph51%30.07 "HgN/A
6:20 PM82 °FScattered clouds.8 mph48%30.07 "HgN/A
5:50 PM82 °FPassing clouds.6 mph48%30.07 "HgN/A
5:20 PM82 °FPassing clouds.7 mph51%30.07 "HgN/A
4:50 PM84 °FScattered clouds.7 mph45%30.04 "HgN/A
4:20 PM84 °FPassing clouds.8 mph48%30.07 "HgN/A
3:50 PM82 °FBroken clouds.3 mph48%30.07 "HgN/A
3:20 PM82 °FScattered clouds.6 mph51%30.07 "HgN/A
2:50 PM82 °FPassing clouds.6 mph48%30.07 "HgN/A
2:20 PM82 °FPassing clouds.6 mph55%30.07 "HgN/A
Weather by CustomWeather, © 2016

See weather overviewHow to use our weather pages